793  
ASUS41 KRLX 211810  
RWRRLX  
REGIONAL WEATHER ROUNDUP  
NATIONAL WEATHER SERVICE CHARLESTON WV  
100 PM EST THU FEB 21 2019  
 
NOTE: "FAIR" INDICATES FEW OR NO CLOUDS BELOW 12,000 FEET WITH NO  
SIGNIFICANT WEATHER AND/OR S TO VISIBILITY
.  
 
WVZ003-211900-  
NORTHERN PANHANDLE OF WEST VIRGINIA  
 
CITY SKY/WX TMP DP RH WIND PRES REMARKS
 
WHEELING FAIR 45 30 55 SW14 30.12F  

 
 
WVZ009-211900-  
NORTHWEST WEST VIRGINIA  
 
CITY SKY/WX TMP DP RH WIND PRES REMARKS
 
PARKERSBURG FAIR 47 31 53 SW10 30.20F  

 
 
WVZ006-211900-  
WESTERN WEST VIRGINIA  
 
CITY SKY/WX TMP DP RH WIND PRES REMARKS
 
HUNTINGTON FAIR 50 34 54 NW6 30.19F  

 
 
WVZ015-211900-  
WEST CENTRAL WEST VIRGINIA  
 
CITY SKY/WX TMP DP RH WIND PRES REMARKS
 
CHARLESTON FAIR 51 37 58 SW12 30.17F  

 
 
WVZ022-031-211900-  
NORTH CENTRAL WEST VIRGINIA  
 
CITY SKY/WX TMP DP RH WIND PRES REMARKS
 
MORGANTOWN FAIR 47 28 47 SW8 30.13F  
CLARKSBURG FAIR 50 32 50 W6 30.14F  
BUCKHANNON FAIR 48 34 57 W8 30.14F  

 
 
WVZ025-035-042-045-211900-  
SOUTHERN WEST VIRGINIA  
 
CITY SKY/WX TMP DP RH WIND PRES REMARKS
 
BECKLEY CLOUDY 47 38 71 W10 30.15S  
LOGAN FAIR 52 36 54 VRB6 30.15F  
PINEVILLE CLOUDY 48 41 75 MISG 30.21F  
BLUEFIELD CLOUDY 42 41 96 NW8 30.15S  
LEWISBURG FAIR 49 41 73 W8 30.13F  

 
 
WVZ047-211900-  
NORTHERN MOUNTAINS OF WEST VIRGINIA  
 
CITY SKY/WX TMP DP RH WIND PRES REMARKS
 
ELKINS FAIR 49 34 56 W9 30.13F  

 
 
WVZ052-211900-  
EASTERN PANHANDLE OF WEST VIRGINIA  
 
CITY SKY/WX TMP DP RH WIND PRES REMARKS
 
MARTINSBURG FAIR 52 31 44 W9 30.03F  
PETERSBURG FAIR 53 24 32 W18G32 30.05F  

 
 
SOUTHEAST OHIO/NORTHEAST KENTUCKY  
 
CITY SKY/WX TMP DP RH WIND PRES REMARKS
 
ATHENS FAIR 48 32 54 W7 30.19F  
ASHLAND FAIR 48 37 65 NW5 30.21F  

 
 
 
CLICK HERE TO GO TO PREVIOUS BULLETINS.

The Nexlab WV Page
The Nexlab OH Page
The Nexlab KY Page
The Nexlab VA Page Main Text Page